Location: Catstown
(52.4386°N, 7.2633°W)
Time: 14:54:31
(UTC+00:00)

Cosmos 1833 Rocket - Pass Details

Date: 17 January 2021
Orbit: 833 x 839 km, 71.0° (Epoch: 06 March)

Event Time Altitude Azimuth Distance (km) Brightness Sun altitude
Rises 20:18:56 0° 329° (NNW) 3,392 6.3 -31.2°
Reaches altitude 10° 20:21:25 10° 333° (NNW) 2,455 5.5 -31.6°
Enters shadow 20:24:22 31° 343° (NNW) 1,423 4.0 -32.1°
